Helicity
127 123 127 127 129 121 110 108 107 99 91 110 120 112 119 129 135 128 125 125 122 118 115 104 99 95 92
140 142 143 135 144 137 125 119 111 83 87 94 101 117 116 106 119 121 119 115 114 109 108 105 99 95 90
165 187 180 189 196 171 164 154 135 91 89 87 96 103 110 98 100 116 112 111 109 104 106 108 100 88 80
207 203 204 191 216 213 185 171 153 145 120 107 101 100 89 103 99 103 100 102 100 92 94 97 92 85 78
233 241 229 247 242 226 227 207 172 155 149 138 139 143 135 133 106 90 95 95 90 86 84 87 88 90 82
267 267 259 247 242 259 253 259 240 159 177 162 160 157 140 111 76 84 90 90 81 81 83 87 84 86 83
237 225 255 222 257 270 265 259 228 191 186 170 183 170 143 105 65 78 93 84 77 84 83 82 86 92 90
193 182 189 159 203 214 222 241 256 219 216 192 188 171 164 121 66 87 93 88 80 86 87 85 86 90 90
132 120 117 121 161 263 255 273 253 226 215 213 188 195 170 152 151 130 100 89 89 94 97 91 88 85 62
227 184 169 155 116 186 253 229 209 227 210 225 217 182 154 165 165 141 101 97 105 108 96 84 82 56 57
208 208 197 217 195 210 210 204 231 237 203 245 181 174 170 150 148 124 97 95 100 112 114 83 72 69 54
234 217 197 202 184 222 207 199 195 148 158 206 183 185 203 210 187 149 115 105 123 112 83 68 65 68 35
222 198 196 172 227 244 208 178 175 167 183 187 195 197 204 185 170 144 113 97 106 83 63 58 50 33 32
217 203 209 224 216 237 243 235 239 227 205 186 189 201 189 164 141 127 93 118 97 75 62 55 43 31 17
198 249 231 222 205 231 238 262 253 230 227 218 189 165 161 123 130 73 94 98 83 81 68 67 42 35 18
216 239 225 239 238 262 243 242 227 228 226 224 227 236 171 103 65 92 107 87 86 86 69 65 50 34 24
184 220 252 277 236 301 250 252 236 235 223 211 228 209 194 189 98 61 98 88 93 86 71 66 57 45 34
Wind_Speed
44 40 38 37 37 37 37 38 40 41 42 44 47 47 48 51 55 58 60 62 64 65 67 69 71 72 74
49 45 43 40 40 41 41 41 40 42 43 45 47 48 49 50 54 58 60 62 64 64 66 68 70 71 72
56 50 47 45 46 46 46 45 43 44 46 46 48 48 50 51 52 58 60 62 63 63 65 67 69 70 71
57 56 54 51 49 52 53 50 50 48 49 49 50 50 51 51 53 57 59 60 62 62 63 65 66 68 70
61 60 60 58 59 54 56 54 54 51 53 54 53 54 52 51 52 55 57 58 60 60 61 63 64 67 68
64 66 66 63 57 57 58 61 68 51 55 58 55 55 53 51 51 53 55 57 58 59 60 62 63 65 67
69 67 69 60 57 60 59 62 65 57 54 65 55 55 50 49 48 51 52 54 55 57 58 60 61 63 65
62 64 61 58 53 55 58 58 60 58 54 66 54 56 49 49 46 46 48 51 52 54 56 56 57 59 62
61 60 59 56 53 52 59 62 67 64 52 57 53 52 52 50 43 41 44 47 49 51 52 52 53 56 57
63 59 57 55 52 52 57 63 61 61 50 51 49 48 54 45 40 41 43 43 44 47 46 46 49 51 53
66 65 62 60 58 51 48 48 51 52 43 41 46 43 46 45 42 39 40 39 40 41 41 43 46 48 50
62 62 60 57 52 45 41 43 44 49 39 34 42 40 43 46 47 41 40 34 34 37 39 41 43 47 47
60 58 52 50 44 41 41 40 41 39 31 35 39 39 40 43 43 39 35 31 31 36 38 39 41 44 48
56 53 49 44 42 39 39 38 39 39 36 36 35 34 38 39 38 36 32 30 30 35 37 36 37 41 45
56 52 49 46 44 41 41 39 41 40 38 37 35 36 38 37 39 35 31 32 31 34 34 36 36 40 44
56 53 52 49 47 43 41 42 42 39 37 36 34 36 41 44 37 34 30 30 29 31 32 34 36 39 42
61 56 54 51 47 46 43 42 41 39 38 35 35 38 39 41 39 32 29 29 30 30 31 34 37 41 41
Wind_Direction
314 315 314 314 316 318 319 319 322 325 328 330 332 332 334 335 336 336 336 335 335 335 336 335 335 336 336
308 308 308 308 310 311 312 313 314 317 321 324 326 328 328 330 331 332 332 333 333 333 333 334 334 334 335
305 308 306 308 306 307 307 308 308 311 314 317 319 321 323 324 326 328 329 329 330 331 331 332 332 332 333
304 305 306 306 304 302 301 303 304 307 310 312 313 315 316 319 321 324 325 327 328 329 330 330 331 332 332
301 302 302 302 300 302 298 301 302 303 305 307 308 310 311 314 317 320 322 324 325 326 328 329 330 330 331
299 299 299 300 301 298 298 298 299 301 300 302 305 304 306 308 311 315 318 320 322 324 325 326 328 329 330
298 297 298 298 298 296 295 296 297 302 300 300 301 299 303 306 308 313 316 319 321 323 324 325 327 328 329
299 299 298 300 295 295 295 296 299 299 299 297 299 297 301 305 305 311 315 319 320 323 324 326 328 330 331
300 299 299 297 296 296 294 294 294 295 293 296 297 297 300 302 305 310 314 319 320 322 325 327 330 332 334
300 299 299 298 294 291 293 291 292 294 292 291 295 298 298 300 302 307 311 317 321 324 327 331 334 336 338
298 296 295 294 294 290 290 287 289 291 299 293 296 295 297 302 301 304 309 313 317 322 327 333 337 339 340
297 296 295 294 292 288 288 290 292 291 291 287 296 293 295 296 297 297 303 309 315 317 325 331 337 340 343
294 295 294 295 294 289 290 293 293 291 287 290 291 293 294 295 296 296 296 298 307 313 320 328 333 337 339
293 293 294 292 288 286 283 286 289 289 291 292 290 290 292 290 292 290 290 293 301 308 318 328 335 340 342
291 289 287 285 282 281 280 281 282 282 283 286 288 289 289 287 284 282 283 288 295 306 316 321 330 334 340
288 285 283 279 277 276 275 276 275 276 276 278 280 283 284 283 279 277 277 283 292 301 313 319 324 332 339
286 282 280 276 271 269 268 271 274 273 273 270 269 271 273 273 277 267 270 276 283 296 308 314 317 322 335